Weather History for KFRI - February, 2013

Change the Weather History Date:

Saturday, February 16, 2013

  Actual Average (KMHK) Record (KMHK)
Temperature  
Mean Temperature 30 °F 33 °F  
Max Temperature 45 °F 45 °F 69 °F (2011)
Min Temperature 14 °F 21 °F -2 °F (2007)
Degree Days  
Heating Degree Days 36 32  
Month to date heating degree days 536  
Since 1 July heating degree days 3802  
Cooling Degree Days 0 0  
Month to date cooling degree days 0  
Year to date cooling degree days 0  
Moisture  
Dew Point 17 °F    
Average Humidity 63    
Maximum Humidity 96    
Minimum Humidity 30    
Precipitation  
Precipitation 0.00 in 0.04 in 0.31 in (2008)
Month to date precipitation 0.57  
Year to date precipitation 1.22  
Sea Level Pressure  
Sea Level Pressure 30.22 in    
Wind  
Wind Speed 6 mph (SSW)    
Max Wind Speed 18 mph    
Max Gust Speed 24 mph    
Visibility 10 miles    
Events      
T = Trace of Precipitation, MM = Missing Value Source: NWS Daily Summary

Daily Weather History Graph

Daily Weather History Graph

Search for Another Location

Airport or City:

Trip Planner

Search our weather history database for the weather conditions in past years. The results will help you decide how hot, cold, wet, or windy it might be!

Date:

Astronomy

Feb. 16, 2013 Rise Set
Actual Time 7:16 AM CST 6:05 PM CST
Civil Twilight 6:49 AM CST 6:33 PM CST
Nautical Twilight 6:18 AM CST 7:04 PM CST
Astronomical Twilight 5:47 AM CST 7:35 PM CST
Moon 10:34 AM CST (2/16) 12:03 AM CST (2/16)
Length of Visible Light 11h 43m
Length of Day
10h 48m
Waxing Crescent, 39% of the Moon is Illuminated
Feb 16
Waxing Crescent
Feb 17
First Quarter
Feb 25
Full
Mar 4
Last Quarter
Mar 11
New

Hourly Weather History & Observations

Time (CST) Temp. Windchill Dew Point Humidity Pressure Visibility Wind Dir Wind Speed Gust Speed Precip Events Conditions
12:55 AM 22.8 °F 14.5 °F 16.3 °F 76% 30.40 in 10.0 mi NW 6.9 mph - N/A   Clear
1:55 AM 21.4 °F 15.1 °F 15.3 °F 77% 30.40 in 10.0 mi NNW 4.6 mph - N/A   Clear
2:55 AM 20.1 °F 12.3 °F 15.3 °F 81% 30.39 in 10.0 mi North 5.8 mph - N/A   Clear
3:55 AM 18.7 °F 13.5 °F 14.5 °F 84% 30.39 in 10.0 mi South 3.5 mph - N/A   Clear
4:55 AM 18.1 °F - 15.3 °F 88% 30.38 in 10.0 mi Calm Calm - N/A   Clear
5:55 AM 17.2 °F 10.2 °F 15.1 °F 91% 30.38 in 10.0 mi SSW 4.6 mph - N/A   Clear
6:55 AM 14.7 °F - 13.5 °F 95% 30.37 in 10.0 mi Calm Calm - N/A   Partly Cloudy
7:55 AM 16.9 °F 8.5 °F 16.0 °F 96% 30.36 in 10.0 mi SW 5.8 mph - N/A   Mostly Cloudy
8:55 AM 19.6 °F - 17.2 °F 91% 30.35 in 10.0 mi Calm Calm - N/A   Overcast
9:55 AM 26.4 °F 17.3 °F 20.8 °F 79% 30.31 in 10.0 mi South 9.2 mph - N/A   Scattered Clouds
10:55 AM 29.3 °F 22.3 °F 18.1 °F 63% 30.28 in 10.0 mi SSW 6.9 mph - N/A   Overcast
11:55 AM 33.1 °F 23.9 °F 16.7 °F 51% 30.24 in 10.0 mi South 12.7 mph - N/A   Overcast
12:55 PM 36.5 °F 27.4 °F 16.3 °F 44% 30.18 in 10.0 mi South 15.0 mph - N/A   Overcast
1:55 PM 41.0 °F 34.3 °F 14.5 °F 34% 30.14 in 10.0 mi SSW 11.5 mph 24.2 mph N/A   Mostly Cloudy
2:55 PM 43.3 °F 35.2 °F 14.2 °F 31% 30.12 in 10.0 mi South 18.4 mph - N/A   Partly Cloudy
3:55 PM 44.8 °F 38.0 °F 14.7 °F 30% 30.09 in 10.0 mi South 15.0 mph - N/A   Scattered Clouds
4:55 PM 45.0 °F 39.7 °F 16.9 °F 32% 30.07 in 10.0 mi South 10.4 mph - N/A   Overcast
5:55 PM 43.3 °F 39.2 °F 18.0 °F 36% 30.06 in 10.0 mi SSE 6.9 mph - N/A   Partly Cloudy
6:55 PM 39.6 °F 34.0 °F 18.3 °F 42% 30.07 in 10.0 mi SSE 8.1 mph - N/A   Clear
7:55 PM 36.3 °F - 18.7 °F 49% 30.07 in 10.0 mi Calm Calm - N/A   Clear
8:55 PM 34.3 °F 31.4 °F 19.0 °F 54% 30.07 in 10.0 mi West 3.5 mph - N/A   Clear
9:55 PM 35.1 °F 30.1 °F 20.8 °F 56% 30.07 in 10.0 mi South 5.8 mph - N/A   Clear
10:55 PM 32.5 °F 29.3 °F 20.5 °F 61% 30.06 in 10.0 mi SE 3.5 mph - N/A   Clear
11:55 PM 32.0 °F - 19.8 °F 61% 30.04 in 10.0 mi Calm Calm - N/A   Clear